Change the Weather History Date:

Wednesday, March 13, 2013

  Actual Average Record
Temperature  
Mean Temperature 35 °F -  
Max Temperature 42 °F 50 °F 55 °F (1998)
Min Temperature 28 °F 36 °F 23 °F (2002)
Degree Days  
Heating Degree Days 30    
Moisture  
Dew Point 26 °F    
Average Humidity 69    
Maximum Humidity 86    
Minimum Humidity 49    
Precipitation  
Precipitation 0.00 in 0.06 in - ()
Sea Level Pressure  
Sea Level Pressure 29.93 in    
Wind  
Wind Speed 5 mph ()    
Max Wind Speed 10 mph    
Max Gust Speed -    
Visibility 6.2 miles    
Events      
Averages and records for this station are not official NWS values.
T = Trace of Precipitation, MM = Missing Value Source: Averaged Metar Reports

Daily Weather History Graph

Daily Weather History Graph

Search for Another Location

Airport or City:

Trip Planner

Search our weather history database for the weather conditions in past years. The results will help you decide how hot, cold, wet, or windy it might be!

Date:

Astronomy

Mar. 13, 2013 Rise Set
Actual Time 6:33 AM GMT 6:13 PM GMT
Civil Twilight 5:56 AM GMT 6:50 PM GMT
Nautical Twilight 5:13 AM GMT 7:33 PM GMT
Astronomical Twilight 4:28 AM GMT 8:18 PM GMT
Moon 6:41 AM GMT (3/13) 8:46 PM GMT (3/13)
Length of Visible Light 12h 53m
Length of Day
11h 39m
Waxing Crescent, 3% of the Moon is Illuminated
Mar 13
Waxing Crescent
Mar 19
First Quarter
Mar 27
Full
Apr 3
Last Quarter
Apr 10
New

Hourly Weather History & Observations

Time (GMT) Temp. Windchill Dew Point Humidity Pressure Visibility Wind Dir Wind Speed Gust Speed Precip Events Conditions
12:20 AM 33.8 °F 29.6 °F 28.4 °F 81% 29.89 in 6.2 mi NW 4.6 mph - N/A   Unknown
12:50 AM 33.8 °F 30.8 °F 28.4 °F 81% 29.89 in 6.2 mi NNW 3.5 mph - N/A   Unknown
1:20 AM 35.6 °F 29.2 °F 26.6 °F 70% 29.89 in 6.2 mi NW 8.1 mph - N/A   Unknown
1:50 AM 35.6 °F 31.7 °F 26.6 °F 70% 29.89 in 6.2 mi NW 4.6 mph - N/A   Unknown
2:20 AM 33.8 °F - 26.6 °F 75% 29.89 in 6.2 mi Variable 2.3 mph - N/A   Unknown
2:50 AM 32.0 °F - 26.6 °F 80% 29.89 in 6.2 mi Variable 2.3 mph - N/A   Unknown
3:20 AM 33.8 °F 29.6 °F 28.4 °F 81% 29.89 in 6.2 mi NW 4.6 mph - N/A   Unknown
3:50 AM 33.8 °F 29.6 °F 28.4 °F 81% 29.89 in 6.2 mi NW 4.6 mph - N/A   Unknown
4:20 AM 33.8 °F 27.7 °F 26.6 °F 75% 29.86 in 6.2 mi NW 6.9 mph - N/A   Partly Cloudy
4:50 AM 33.8 °F 29.6 °F 26.6 °F 75% 29.86 in 6.2 mi NW 4.6 mph - N/A   Unknown
5:20 AM 33.8 °F 27.7 °F 26.6 °F 75% 29.86 in 6.2 mi WNW 6.9 mph - N/A   Unknown
5:50 AM 33.8 °F - 26.6 °F 75% 29.89 in 6.2 mi Variable 2.3 mph - N/A   Unknown
6:20 AM 32.0 °F - 26.6 °F 80% 29.89 in 6.2 mi Variable 2.3 mph - N/A   Scattered Clouds
7:20 AM 32.0 °F - 26.6 °F 80% 29.89 in 6.2 mi WNW 2.3 mph - N/A   Partly Cloudy
7:50 AM 30.2 °F 25.4 °F 26.6 °F 86% 29.89 in 6.2 mi SW 4.6 mph - N/A   Partly Cloudy
8:20 AM 33.8 °F 28.6 °F 28.4 °F 81% 29.89 in 6.2 mi WSW 5.8 mph - N/A   Partly Cloudy
8:50 AM 35.6 °F 29.9 °F 26.6 °F 70% 29.92 in 6.2 mi NW 6.9 mph - N/A   Unknown
9:20 AM 37.4 °F 32.8 °F 26.6 °F 65% 29.92 in 6.2 mi NNW 5.8 mph - N/A   Partly Cloudy
9:50 AM 37.4 °F 32.8 °F 26.6 °F 65% 29.92 in 6.2 mi North 5.8 mph - N/A   Partly Cloudy
10:20 AM 37.4 °F 30.3 °F 24.8 °F 60% 29.92 in 6.2 mi North 10.4 mph - N/A   Partly Cloudy
10:50 AM 39.2 °F 33.0 °F 26.6 °F 61% 29.92 in 6.2 mi North 9.2 mph - N/A   Partly Cloudy
11:20 AM 41.0 °F 35.2 °F 28.4 °F 61% 29.92 in - North 9.2 mph - N/A   Clear
11:50 AM 41.0 °F 35.8 °F 26.6 °F 57% 29.92 in 6.2 mi NNW 8.1 mph - N/A   Scattered Clouds
12:20 PM 41.0 °F 37.1 °F 26.6 °F 57% 29.92 in 6.2 mi NNW 5.8 mph - N/A   Scattered Clouds
12:50 PM 41.0 °F 37.1 °F 24.8 °F 53% 29.92 in 6.2 mi NNW 5.8 mph - N/A   Mostly Cloudy
1:20 PM 41.0 °F 36.4 °F 26.6 °F 57% 29.92 in 6.2 mi North 6.9 mph - N/A   Scattered Clouds
1:50 PM 41.0 °F 35.2 °F 24.8 °F 53% 29.92 in 6.2 mi NNE 9.2 mph - N/A   Scattered Clouds
2:20 PM 41.0 °F 37.1 °F 24.8 °F 53% 29.92 in 6.2 mi NNW 5.8 mph - N/A   Mostly Cloudy
2:50 PM 42.8 °F 38.6 °F 24.8 °F 49% 29.92 in 6.2 mi North 6.9 mph - N/A   Scattered Clouds
3:20 PM 41.0 °F 36.4 °F 26.6 °F 57% 29.92 in 6.2 mi NNE 6.9 mph - N/A   Scattered Clouds
3:50 PM 39.2 °F 33.6 °F 23.0 °F 52% 29.92 in 6.2 mi NNE 8.1 mph - N/A   Scattered Clouds
4:20 PM 41.0 °F 35.8 °F 23.0 °F 49% 29.95 in 6.2 mi NNE 8.1 mph - N/A   Partly Cloudy
4:50 PM 41.0 °F 37.1 °F 23.0 °F 49% 29.95 in 6.2 mi North 5.8 mph - N/A   Partly Cloudy
5:20 PM 39.2 °F 37.0 °F 24.8 °F 56% 29.95 in 6.2 mi North 3.5 mph - N/A   Partly Cloudy
5:50 PM 39.2 °F 37.0 °F 24.8 °F 56% 29.95 in 6.2 mi North 3.5 mph - N/A   Partly Cloudy
6:20 PM 35.6 °F 31.7 °F 23.0 °F 60% 29.95 in 6.2 mi NE 4.6 mph - N/A   Partly Cloudy
6:50 PM 33.8 °F - 26.6 °F 75% 29.98 in 6.2 mi Variable 2.3 mph - N/A   Partly Cloudy
7:20 PM 33.8 °F - 24.8 °F 70% 29.98 in - Calm Calm - N/A   Clear
7:50 PM 32.0 °F 28.7 °F 24.8 °F 75% 29.98 in - Variable 3.5 mph - N/A   Clear
8:20 PM 32.0 °F 28.7 °F 24.8 °F 75% 29.98 in - WSW 3.5 mph - N/A   Clear
8:50 PM 32.0 °F 28.7 °F 26.6 °F 80% 29.98 in - NW 3.5 mph - N/A   Clear
9:20 PM 30.2 °F 26.7 °F 24.8 °F 80% 29.98 in - West 3.5 mph - N/A   Clear
9:50 PM 30.2 °F 24.3 °F 24.8 °F 80% 29.98 in - WSW 5.8 mph - N/A   Clear
10:20 PM 30.2 °F - 24.8 °F 80% 29.98 in - Variable 2.3 mph - N/A   Clear
10:50 PM 30.2 °F - 24.8 °F 80% 30.01 in - Variable 2.3 mph - N/A   Clear
11:20 PM 28.4 °F - 24.8 °F 86% 30.01 in - Calm Calm - N/A   Clear
11:50 PM 28.4 °F - 24.8 °F 86% 30.01 in 6.2 mi Variable 2.3 mph - N/A   Scattered Clouds